EW6420 Weather Reports


Display with metric or nautical units.
time (UTC)temp
F
wind
direction
speed
MPH
gust
MPH
rain 1hr
in
rain 24hr
in
rain mn
in
humidity
%
barometer
mb
20260902130003 56 11 0.0 0.0 0.00 0.00 0.00 89 1007.4
20260902124503 56 11 0.0 0.0 0.00 0.00 0.00 89 1007.5
20260902123001 56 11 0.0 0.0 0.00 0.00 0.00 89 1007.7
20260902120002 57 11 0.0 0.0 0.00 0.00 0.00 89 1007.8
20260902114503 57 11 0.0 0.0 0.00 0.00 0.00 88 1008.0
20260902113000 57 11 0.0 0.0 0.00 0.00 0.00 88 1008.1
20260902111500 58 11 0.0 1.0 0.00 0.00 0.00 87 1008.1
20260902110007 58 11 0.0 2.0 0.00 0.00 0.00 87 1008.2
20260902103001 58 11 0.0 0.0 0.00 0.00 0.00 87 1008.5
20260902101502 58 11 0.0 0.0 0.00 0.00 0.00 87 1008.6
20260902100006 58 11 0.0 0.0 0.00 0.00 0.00 87 1008.7
20260902094459 58 11 0.0 1.0 0.00 0.00 0.00 87 1008.8
20260902093000 59 11 0.0 0.0 0.00 0.00 0.00 86 1008.8
20260902091501 59 11 0.0 0.0 0.00 0.00 0.00 84 1008.9
20260902090000 60 11 0.0 0.0 0.00 0.00 0.00 84 1008.9
20260902084501 60 11 0.0 0.0 0.00 0.00 0.00 84 1008.9
20260902080005 60 11 0.0 0.0 0.00 0.00 0.00 84 1009.3
20260902074506 60 11 0.0 0.0 0.00 0.00 0.00 83 1009.4
20260902073003 60 11 0.0 0.0 0.00 0.00 0.00 82 1009.5
20260902071503 60 11 0.0 0.0 0.00 0.00 0.00 82 1009.6
20260902070007 60 11 0.0 0.0 0.00 0.00 0.00 82 1009.7
20260902064503 60 11 0.0 0.0 0.00 0.00 0.00 82 1009.7
20260902063005 61 11 0.0 0.0 0.00 0.00 0.00 81 1009.7
20260902061504 61 11 0.0 0.0 0.00 0.00 0.00 81 1009.8
20260902060004 61 11 0.0 0.0 0.00 0.00 0.00 81 1009.8
20260902054502 61 11 0.0 0.0 0.00 0.00 0.00 81 1009.9
20260902053002 61 11 0.0 0.0 0.00 0.00 0.00 81 1009.9
20260902051502 61 11 0.0 0.0 0.00 0.00 0.00 80 1010.0
20260902050008 61 11 0.0 2.0 0.00 0.00 0.00 80 1010.1
20260902044503 62 11 0.0 0.0 0.00 0.00 0.00 79 1010.1
20260902043004 62 11 0.0 2.0 0.00 0.00 0.00 79 1010.0
20260902040005 62 11 0.0 2.0 0.00 0.00 0.00 79 1010.1
20260902034502 62 11 0.0 0.0 0.00 0.00 0.00 79 1010.1
20260902033003 62 11 0.0 0.0 0.00 0.00 0.00 79 1010.1
20260902031502 63 11 0.0 1.0 0.00 0.00 0.00 78 1010.1
20260902030003 63 11 0.0 1.0 0.00 0.00 0.00 77 1010.0
20260902024502 63 11 0.0 0.0 0.00 0.00 0.00 75 1009.8
20260902023002 64 11 0.0 2.0 0.00 0.00 0.00 75 1009.8
20260902021502 64 11 0.0 4.0 0.00 0.00 0.00 73 1009.8
20260902020002 65 73 0.0 2.0 0.00 0.00 0.00 71 1009.7
20260902014502 65 50 0.0 2.0 0.00 0.00 0.00 70 1009.7
20260902011502 65 50 0.0 2.0 0.00 0.00 0.00 71 1009.6
20260902003002 66 50 1.0 2.0 0.00 0.00 0.00 69 1009.6
20260902001502 66 83 0.0 2.0 0.00 0.00 0.00 68 1009.7
20260902000005 66 86 0.0 2.0 0.00 0.00 0.00 68 1009.6
20260901233002 66 86 0.0 2.0 0.00 0.00 0.00 68 1009.7
20260901231502 66 86 0.0 2.0 0.00 0.00 0.00 71 1009.5
20260901230006 66 86 0.0 2.0 0.00 0.00 0.00 70 1009.6
20260901224501 66 86 0.0 2.0 0.00 0.00 0.00 71 1009.7
20260901223003 66 86 0.0 2.0 0.00 0.00 0.00 67 1009.6
20260901221502 66 86 0.0 2.0 0.00 0.00 0.00 67 1009.6
20260901220008 66 86 0.0 2.0 0.00 0.00 0.00 68 1009.6
20260901214502 66 86 0.0 2.0 0.00 0.00 0.00 69 1009.6
20260901213002 66 86 0.0 2.0 0.00 0.00 0.00 67 1009.6
20260901211502 66 108 0.0 2.0 0.00 0.00 0.00 67 1009.7
20260901210006 66 108 0.0 2.0 0.00 0.00 0.00 67 1009.7
20260901204502 66 122 0.0 2.0 0.00 0.00 0.00 67 1009.8
20260901201501 66 52 0.0 2.0 0.00 0.00 0.00 68 1010.0
20260901200005 66 52 0.0 2.0 0.00 0.00 0.00 69 1009.9
20260901194503 66 162 0.0 2.0 0.00 0.00 0.00 71 1010.0
20260901193004 65 30 0.0 2.0 0.00 0.00 0.00 73 1010.1
20260901191503 64 36 0.0 2.0 0.00 0.00 0.00 75 1010.1
20260901190007 63 183 0.0 3.0 0.00 0.00 0.00 77 1010.3
20260901184502 63 183 0.0 2.0 0.00 0.00 0.00 78 1010.3
20260901183008 62 183 1.0 2.0 0.00 0.00 0.00 78 1010.4
20260901181504 63 183 0.0 2.0 0.00 0.00 0.00 77 1010.3
20260901180006 63 183 1.0 3.0 0.00 0.00 0.00 77 1010.2
20260901174502 63 177 1.0 3.0 0.00 0.00 0.00 77 1010.1
20260901173003 62 204 0.0 2.0 0.00 0.00 0.00 78 1010.0
20260901170003 62 177 1.0 3.0 0.00 0.00 0.00 79 1010.0
20260901164500 61 177 0.0 3.0 0.00 0.00 0.00 80 1010.1
20260901163002 61 177 0.0 3.0 0.00 0.00 0.00 81 1010.2
20260901161503 60 102 0.0 2.0 0.00 0.00 0.00 82 1010.3
20260901160003 59 88 0.0 2.0 0.00 0.00 0.00 84 1010.3
20260901154501 58 88 0.0 1.0 0.00 0.00 0.00 86 1010.2
20260901153001 58 88 0.0 2.0 0.00 0.00 0.00 87 1010.3
20260901144501 56 88 0.0 1.0 0.00 0.00 0.00 89 1010.2
20260901134500 55 88 0.0 0.0 0.00 0.00 0.00 86 1009.8